Newport, AR

7:46 AM CDT on October 22, 2017 (GMT -0500)
Newport

Weather History for KM19 - October, 2012

Change the Weather History Date:

Saturday, October 13, 2012

  Actual Average (KBVX) Record (KBVX)
Temperature  
Mean Temperature 70 °F -  
Max Temperature 81 °F 76 °F 91 °F (1975)
Min Temperature 59 °F 50 °F 31 °F (1977)
Cooling Degree Days 5    
Growing Degree Days 20 (Base 50)    
Moisture  
Dew Point 63 °F    
Average Humidity 86    
Maximum Humidity 100    
Minimum Humidity 56    
Precipitation  
Precipitation 0.00 in - - ()
Sea Level Pressure  
Sea Level Pressure 30.11 in    
Wind  
Wind Speed 8 mph (SSE)    
Max Wind Speed 18 mph    
Max Gust Speed 25 mph    
Visibility 5 miles    
Events Fog    
Averages and records for this station are not official NWS values.
T = Trace of Precipitation, MM = Missing Value Source: NWS Daily Summary

Daily Weather History Graph

Daily Weather History Graph

Search for Another Location

Airport or City:

Trip Planner

Search our weather history database for the weather conditions in past years. The results will help you decide how hot, cold, wet, or windy it might be!

Date:

Astronomy

Oct. 13, 2012 Rise Set
Actual Time 7:09 AM CDT 6:31 PM CDT
Civil Twilight 6:44 AM CDT 6:56 PM CDT
Nautical Twilight 6:14 AM CDT 7:26 PM CDT
Astronomical Twilight 5:45 AM CDT 7:55 PM CDT
Moon 5:03 AM CDT (10/13) 5:13 PM CDT (10/13)
Length of Visible Light 12h 12m
Length of Day
11h 21m
Waning Crescent, 5% of the Moon is Illuminated
Oct 13
Waning Crescent
Oct 15
New
Oct 21
First Quarter
Oct 29
Full
Nov 6
Last Quarter

Hourly Weather History & Observations

Time (CDT) Temp. Heat Index Dew Point Humidity Pressure Visibility Wind Dir Wind Speed Gust Speed Precip Events Conditions
1:20 AM 59.0 °F - 59.0 °F 100% 30.21 in 0.2 mi East 4.6 mph - N/A Fog Fog
2:49 AM 60.8 °F - 60.8 °F 100% 30.19 in 0.5 mi East 4.6 mph - N/A Fog Fog
2:56 AM 59.9 °F - 59.9 °F 100% 30.19 in 0.2 mi East 4.6 mph - N/A Fog Fog
3:56 AM 59.0 °F - 59.0 °F 100% 30.16 in 0.2 mi East 5.8 mph - N/A Fog Fog
5:56 AM 59.9 °F - 59.9 °F 100% 30.17 in 0.2 mi South 3.5 mph - N/A Fog Fog
6:56 AM 59.9 °F - 59.9 °F 100% 30.18 in 0.2 mi East 8.1 mph - N/A Fog Fog
7:07 AM 60.8 °F - 60.8 °F 100% 30.18 in 0.2 mi Calm Calm - N/A Fog Fog
7:56 AM 61.0 °F - 61.0 °F 100% 30.17 in 0.2 mi SE 5.8 mph - N/A Fog Fog
8:56 AM 61.9 °F - 61.9 °F 100% 30.17 in 0.2 mi South 10.4 mph - N/A Fog Fog
9:21 AM 62.6 °F - 62.6 °F 100% 30.18 in 0.5 mi South 9.2 mph - N/A Fog Fog
9:44 AM 64.4 °F - 64.4 °F 100% 30.18 in 1.0 mi South 11.5 mph - N/A   Overcast
9:56 AM 63.9 °F - 63.9 °F 100% 30.17 in 1.8 mi South 10.4 mph - N/A   Overcast
10:03 AM 64.4 °F - 64.4 °F 100% 30.17 in 3.0 mi South 10.4 mph - N/A   Overcast
10:20 AM 64.4 °F - 64.4 °F 100% 30.16 in 4.0 mi South 9.2 mph - N/A   Overcast
10:56 AM 68.0 °F - 68.0 °F 100% 30.14 in 9.0 mi South 10.4 mph 16.1 mph N/A   Scattered Clouds
11:56 AM 75.9 °F - 65.8 °F 71% 30.12 in 10.0 mi SSW 13.8 mph - N/A   Clear
12:56 PM 79.0 °F - 66.9 °F 66% 30.09 in 10.0 mi SW 11.5 mph 23.0 mph N/A   Mostly Cloudy
1:56 PM 81.0 °F 83.0 °F 65.8 °F 60% 30.04 in 10.0 mi SSW 11.5 mph - N/A   Mostly Cloudy
2:56 PM 81.9 °F 83.5 °F 64.9 °F 56% 30.02 in 10.0 mi South 15.0 mph 25.3 mph N/A   Mostly Cloudy
3:56 PM 81.9 °F 83.5 °F 64.9 °F 56% 30.00 in 10.0 mi South 18.4 mph - N/A   Clear
4:56 PM 79.9 °F - 64.9 °F 60% 29.99 in 10.0 mi South 15.0 mph - N/A   Clear
5:56 PM 77.0 °F - 64.9 °F 66% 29.98 in 10.0 mi South 12.7 mph - N/A   Partly Cloudy
6:56 PM 73.9 °F - 64.9 °F 73% 29.97 in 10.0 mi SE 12.7 mph - N/A   Mostly Cloudy
9:56 PM 72.0 °F - 63.9 °F 76% 29.95 in 10.0 mi SSE 17.3 mph - N/A   Clear
10:56 PM 72.0 °F - 63.9 °F 76% 29.92 in 10.0 mi SSE 16.1 mph - N/A   Clear